sat.trackr.live / text

‹ back to catalog

STARLINK-35863

NORAD 67170 · 2025-303H

PAYLOAD ACTIVE UNKNOWN

§ Identity

Operator
Country
US
Launch date
2025-12-17
Launch site
AFETR
Launch vehicle
Mass (kg)
RCS (m²)

Purposes: comms

External: N2YO · Heavens-Above · Gunter

§ Orbital elements

Epoch: 2026-09-19T09:00:03.159648Z

Period
94.27 min
Inclination
43.0005°
Eccentricity
0.0001522
Mean motion
15.27587159 rev/d
Perigee alt
482.0 km
Apogee alt
484.1 km
Semi-major
6,861.2 km
B*
2.8656e-4
RAAN
297.1594°
Arg perigee
276.6588°
Mean anomaly
83.4090°
Rev number
4,235

§ Raw data

STARLINK-358631 67170U 25303H   26262.37503657  .00007633  00000+0  28656-3 0  99962 67170  43.0005 297.1594 0001522 276.6588  83.4090 15.27587159 42352

JSON: /api/v1/satellites/67170 · /tle

For live sub-satellite position, see the globe view (requires WebGL).

§ Visibility from observer

Set your observer location to see the next 7 days of passes ≥ 10°. The values pass through the URL so the page stays shareable.

No JS? Fill the form by hand. The geolocation button needs JavaScript.